Starlink 3549

operational
NORAD ID: 51891 Int'l Des: 2022-022 Owner: SPXS Country: US Constellation: starlink
LEOCIRCULAR

About Starlink 3549

Description loading...

Live Position

Loading 3D Globe...

Upcoming Passes

Altitude History

Altitude vs Time

uPlot chart will show altitude changes over time

Two-Line Element Set

1 51891U 22022AR 26102.65904539 .00000074 00000-0 22751-4 0 9996
2 51891 53.2169 206.6287 0001091 80.4966 279.6149 15.08848280228427
Epoch: Apr 12, 2026 • Age: 14 hours

Current Status

Altitude 540.0 km
Velocity 7.59 km/s
Sub-Earth Point 3.95°N, 86.75°W
Launch Date Mar 3, 2022
Age 4.1 years
Type internet

Technical Details

Classification Payload
Mass 297.00 kg
Dry Mass 275.00 kg
Total Mass 297.00 kg
Length 0.20 m
Diameter 2.80 m
Span 9.00 m
Shape Box + pan
Manufacturer SPXS
Bus Type Starlink
Phase Status In Orbit
Owner/State SPXS/US

Large Constellations

Loading constellations...